Wind_Speed
60 60 59 59 58 57 57 55 54 53 53 52 51 49 49 48 47 47 46 46 45 45 45 45 45 45 45 46 46 46 46 46 46 46 46 46 46 46 46 46 46 47 47 47 48 48 49 49 50 51 51 52 53 54 54 55 56 57 58 58 59 60 61 62 63 65 66 67 69 70 72 73 75 77 79 81 82 83 84 84 85 84 84 83 82 81
56 56 55 54 52 52 51 50 48 48 47 46 45 44 44 43 43 43 42 42 42 42 42 42 42 42 42 42 42 42 42 42 42 41 41 42 42 42 43 43 44 44 45 46 47 48 48 49 50 51 52 52 53 54 55 55 56 56 57 58 58 59 59 60 60 61 62 63 64 65 66 67 68 70 72 74 76 78 80 82 83 84 84 85 85 84
51 50 50 48 47 46 46 45 44 43 42 42 41 41 41 41 41 41 41 40 40 40 39 39 39 38 38 38 38 38 38 38 38 39 39 40 41 42 43 43 44 45 46 47 48 49 50 51 52 52 53 54 55 56 57 57 58 59 59 60 60 60 61 61 62 62 62 63 63 63 63 64 65 65 67 68 70 71 73 75 77 79 80 82 83 84
46 46 45 44 43 42 42 41 41 40 40 40 40 40 40 40 39 39 39 38 37 37 36 35 35 35 35 35 35 36 36 37 38 39 40 41 42 43 43 44 45 46 47 48 49 50 51 52 53 54 55 56 57 58 58 59 60 61 62 62 63 63 64 64 64 65 65 65 65 65 65 65 65 65 65 65 66 67 68 69 70 71 73 75 77 79
42 42 41 41 40 40 40 40 40 39 39 39 39 38 38 37 36 36 35 34 33 33 32 32 32 33 33 34 35 36 37 38 39 40 40 41 42 43 44 45 46 47 48 49 50 51 52 53 54 55 56 57 58 59 60 61 62 63 64 64 65 66 66 67 67 68 68 68 68 68 68 68 68 67 67 67 67 66 66 66 66 67 67 69 70 72
40 40 40 40 40 40 39 39 39 38 37 36 35 34 33 33 32 31 31 31 31 31 31 32 32 33 34 35 36 37 37 38 39 40 41 42 43 44 45 46 47 48 49 50 51 52 53 54 55 57 58 59 60 61 62 63 64 65 65 66 67 68 69 69 70 70 71 71 71 71 71 71 71 70 70 70 69 69 68 67 66 66 66 66 66 67
39 39 39 39 39 39 38 37 36 34 33 32 31 30 29 29 29 29 29 30 30 31 32 32 33 33 34 35 36 37 38 39 40 40 41 42 43 44 45 47 48 49 50 51 52 53 54 56 57 58 59 60 61 62 63 64 65 66 67 68 69 70 71 72 72 73 73 74 74 74 74 74 74 73 73 72 72 71 71 70 69 68 67 66 66 66
39 39 38 38 37 35 34 32 30 29 28 28 27 27 27 28 28 29 30 30 31 32 32 33 33 34 35 35 36 37 38 39 40 41 42 43 44 45 46 47 49 50 51 52 53 54 56 57 58 60 61 62 63 65 66 67 68 69 70 71 71 72 73 74 74 75 76 76 77 77 77 77 77 77 76 75 75 74 74 73 72 71 70 69 68 67
37 36 35 33 32 30 29 27 26 26 26 26 26 27 28 29 29 30 30 31 31 32 33 33 34 34 35 36 37 38 39 40 41 41 42 44 45 46 47 49 50 51 52 54 55 56 58 59 60 62 63 64 66 67 68 69 71 72 73 74 74 75 76 76 77 77 78 78 79 79 80 80 80 80 79 79 78 77 77 76 75 74 73 72 71 69
32 31 29 28 27 26 26 25 25 25 25 26 27 27 28 29 30 30 31 32 32 32 33 33 34 35 35 36 37 38 39 41 42 43 44 45 46 47 49 50 52 53 55 56 58 59 60 62 63 64 65 67 68 69 70 72 73 74 75 76 77 78 78 79 79 80 80 81 81 82 82 82 82 82 82 82 81 81 80 79 78 77 76 75 73 72
27 26 25 25 24 24 25 25 25 26 26 27 27 28 28 29 30 30 31 32 32 33 33 33 34 35 36 37 38 39 41 42 43 44 45 47 48 49 51 52 54 55 57 58 60 61 62 64 65 66 67 68 70 71 72 73 75 76 77 78 79 80 81 81 82 82 83 83 83 84 84 84 85 85 85 84 84 84 83 82 81 80 79 77 76 75
24 24 24 24 24 25 25 25 26 26 26 27 28 28 28 29 29 30 31 32 32 33 34 34 35 35 36 38 39 40 42 43 45 46 47 48 49 51 52 54 55 57 58 59 61 62 63 65 66 67 69 70 71 72 74 75 76 77 78 79 80 81 82 83 83 84 85 85 85 86 86 86 87 87 87 87 87 86 86 85 84 83 82 80 79 78
23 23 24 24 24 25 25 26 26 26 27 27 28 28 29 29 29 30 31 32 33 33 34 35 36 37 37 39 40 41 43 44 46 47 48 49 50 52 53 55 56 58 59 61 62 63 65 66 68 69 70 72 73 74 75 76 77 78 79 80 81 82 82 83 84 85 86 86 87 87 88 88 88 89 89 89 89 89 88 88 87 86 85 83 82 81
23 23 24 24 25 25 25 26 26 26 27 27 28 28 29 29 30 31 32 33 33 34 35 37 38 38 39 40 41 42 44 45 47 48 50 51 52 53 55 57 58 60 61 62 64 65 67 68 70 71 73 74 75 76 77 78 79 79 80 80 81 82 82 83 84 85 86 86 87 88 89 89 90 90 91 91 91 91 90 90 89 88 87 86 85 84
23 23 24 24 24 25 25 26 26 27 27 27 28 29 29 30 31 32 33 34 35 36 37 38 39 40 41 42 42 44 45 47 48 50 52 53 54 55 56 58 60 62 63 64 66 68 69 70 72 74 75 76 77 78 79 79 80 80 80 81 81 81 82 82 83 84 85 86 87 88 89 90 90 91 92 92 92 93 92 92 91 91 90 89 88 86
23 23 24 24 24 25 25 26 26 27 27 28 29 30 30 31 32 33 34 35 36 37 38 40 41 42 43 44 44 46 47 48 50 52 53 55 56 57 58 60 62 63 65 66 68 70 71 73 74 76 77 78 79 80 80 81 81 81 81 81 81 81 81 81 82 83 83 84 85 87 88 89 90 91 92 92 93 93 94 94 93 93 92 91 90 89
22 23 23 24 24 25 25 26 27 28 28 29 30 31 32 33 34 35 36 37 38 39 40 41 42 43 45 45 46 47 48 50 51 53 54 56 57 58 59 61 63 65 67 68 70 71 73 75 77 78 79 80 81 81 82 82 82 81 81 81 81 81 80 81 81 81 82 83 84 85 86 87 88 90 91 92 93 93 94 95 95 94 94 93 92 91
22 23 24 24 25 26 26 27 28 29 30 31 32 32 33 34 35 36 37 38 40 41 42 43 44 45 46 47 48 48 49 51 52 54 55 57 59 60 61 62 64 66 68 70 72 73 75 77 79 80 81 82 83 83 83 83 82 82 82 81 81 80 80 80 80 80 80 81 82 82 84 85 86 88 89 90 91 92 93 94 95 95 95 94 93 92
23 24 24 25 26 27 28 28 29 30 31 32 33 34 35 36 37 38 39 40 41 42 44 45 46 47 48 48 49 50 50 51 53 54 56 58 59 61 62 63 65 67 69 71 74 76 78 80 81 82 83 84 84 84 84 84 83 83 82 82 81 80 80 79 79 79 79 79 79 80 81 82 83 85 86 87 88 90 91 92 93 94 95 95 94 94
24 25 25 26 27 28 29 30 30 31 32 33 34 35 36 37 39 40 41 42 43 44 45 46 47 48 49 50 50 51 51 53 54 55 57 59 60 62 63 64 66 69 71 73 75 78 80 82 83 84 85 86 86 86 85 85 84 84 83 82 81 80 79 78 77 77 77 77 77 77 78 79 80 81 82 84 85 86 88 89 90 92 93 94 94 94
25 26 26 27 28 29 30 31 32 33 34 35 36 37 38 39 40 41 42 43 44 46 47 48 49 50 50 51 52 52 53 54 55 56 58 60 62 63 64 66 68 70 72 75 77 80 82 84 85 86 87 87 87 87 87 86 85 84 83 82 80 79 78 77 76 75 74 74 74 74 75 75 76 77 79 80 81 83 84 85 87 88 90 91 93 93
26 26 27 28 29 30 31 32 33 34 35 36 37 38 39 40 41 42 43 44 45 46 48 49 50 51 52 53 53 54 54 55 56 58 59 61 63 64 66 67 69 71 74 76 79 81 83 85 87 88 88 88 88 88 87 86 85 84 82 81 79 77 76 75 73 72 72 71 71 71 71 72 72 73 74 76 77 78 80 81 83 84 86 88 89 91
26 27 28 29 30 31 32 33 34 35 37 37 38 39 40 41 42 43 44 45 46 47 49 50 51 52 53 54 55 56 56 57 58 59 61 62 64 66 67 68 70 72 75 77 80 82 84 86 88 89 89 89 89 89 88 86 85 83 81 79 77 75 74 72 71 70 69 68 68 68 68 68 68 69 70 71 72 73 75 77 78 80 82 83 85 87
27 28 29 30 31 32 34 35 36 37 38 39 40 40 41 42 43 44 45 46 47 48 49 51 52 53 54 55 56 57 58 59 60 61 62 64 65 67 68 69 71 73 75 78 80 82 84 86 88 89 89 90 89 88 87 85 83 81 79 77 75 73 71 70 68 67 66 65 65 64 64 64 64 65 65 66 67 68 70 72 73 75 77 79 81 83
28 29 30 31 32 33 35 36 37 37 38 39 40 41 43 44 45 46 46 47 48 49 50 52 53 54 55 57 58 59 59 60 61 62 63 65 66 68 69 71 72 74 76 78 81 82 84 86 88 89 89 89 88 87 86 84 81 79 76 74 72 70 68 66 65 64 63 62 61 60 60 60 60 60 60 61 62 63 65 66 68 70 72 74 76 78
29 30 31 32 33 34 35 36 37 38 39 40 42 43 44 45 46 47 48 48 49 50 51 53 54 55 57 58 59 60 61 61 62 63 64 66 67 69 70 72 73 74 76 79 81 82 84 85 86 87 88 87 86 85 83 81 79 76 73 70 68 66 64 63 61 60 59 58 57 56 56 55 55 55 56 56 57 58 60 61 63 65 67 69 71 74
30 31 32 33 34 35 36 38 39 40 41 42 43 44 45 46 47 48 49 49 50 51 53 54 55 56 57 59 60 61 62 63 63 64 65 67 68 70 71 72 74 75 77 79 80 82 83 84 85 85 85 84 83 81 80 78 75 72 69 67 64 62 61 59 57 56 55 54 53 52 52 51 51 51 51 52 53 54 55 56 58 60 62 64 67 69
31 32 33 34 36 37 38 39 40 41 42 43 44 45 46 47 48 49 50 51 52 53 54 55 56 57 58 60 61 63 64 64 65 65 66 67 69 70 72 73 75 76 77 78 80 81 82 82 82 82 81 80 79 77 75 73 71 68 66 63 61 59 57 55 54 52 51 50 49 49 48 47 47 47 47 47 48 49 50 51 53 55 57 59 62 64
32 33 34 36 37 38 39 40 41 42 43 44 45 46 47 48 49 50 51 52 53 54 55 56 57 58 60 61 62 64 65 65 66 66 67 68 70 71 72 74 75 77 77 78 79 80 81 81 80 79 77 76 74 72 70 69 67 64 62 60 57 55 53 52 50 49 48 47 47 46 45 44 44 43 43 44 44 45 46 47 48 50 52 54 57 60
33 35 36 37 38 39 40 41 42 43 44 45 46 47 48 49 50 51 52 54 55 56 57 58 59 60 61 62 63 64 66 66 67 67 68 69 70 71 73 74 76 77 78 78 79 79 79 79 77 75 73 71 69 67 65 63 62 60 58 56 55 53 51 49 48 47 46 45 44 44 43 42 42 41 41 41 41 41 42 43 44 45 47 49 51 55
35 36 37 38 39 40 41 42 43 44 45 46 47 48 49 51 52 53 54 55 56 57 58 59 60 61 62 63 64 65 66 67 68 68 68 69 71 72 73 75 76 78 79 78 78 78 77 77 75 72 69 66 63 61 59 57 56 56 55 54 52 51 49 48 46 45 44 43 42 42 41 41 40 40 40 39 39 39 40 40 41 41 42 44 46 49
36 37 38 39 41 42 43 44 45 46 47 48 49 50 51 52 53 54 55 56 57 58 59 60 61 62 63 64 65 66 67 68 69 69 69 70 71 73 74 75 76 78 79 79 78 77 76 75 73 69 65 61 58 56 54 52 52 51 51 51 50 50 48 47 45 44 43 42 41 41 40 39 39 39 39 39 38 39 39 39 39 39 39 40 41 44
38 39 40 41 42 43 44 45 46 47 48 49 50 51 52 53 54 55 56 58 59 59 60 61 62 63 64 65 66 67 68 69 70 70 70 71 72 73 74 75 76 77 78 78 78 77 75 73 70 66 62 57 54 51 50 49 48 48 48 48 48 48 48 47 46 44 43 42 41 40 39 39 38 38 38 38 38 38 38 38 38 38 37 37 38 40
39 40 41 42 43 44 45 46 47 48 49 50 51 52 53 54 56 57 58 59 60 61 62 62 63 64 65 66 67 68 69 70 70 71 71 72 72 73 75 75 76 76 77 77 76 75 73 70 67 62 58 54 51 48 46 46 46 45 45 45 46 46 46 46 45 45 44 43 42 41 40 39 38 38 37 37 37 37 37 38 38 38 37 36 36 37
40 41 42 43 44 45 46 47 48 49 50 51 52 53 55 56 57 58 59 60 61 62 63 64 64 65 66 66 67 68 69 70 71 71 72 72 73 74 75 75 76 76 76 75 74 72 70 67 63 59 54 50 48 45 44 43 43 43 43 43 44 44 45 45 45 44 44 43 43 42 41 40 39 38 38 37 37 37 37 37 37 37 37 36 36 36
41 42 43 44 45 46 47 48 49 50 51 52 53 54 55 57 58 59 60 61 62 63 64 65 65 66 67 67 68 69 70 71 71 72 72 73 73 74 74 75 75 75 74 74 72 70 67 64 60 56 51 46 44 43 42 41 41 41 41 42 42 42 43 43 43 43 43 43 43 42 42 41 40 40 39 38 38 37 37 37 37 36 36 36 36 36
42 43 44 45 46 47 48 49 50 51 52 53 54 55 56 57 58 59 60 61 62 63 64 65 66 67 68 68 69 70 70 71 72 72 73 73 74 74 74 74 75 74 73 71 70 68 64 60 56 52 48 44 42 41 41 40 39 39 39 40 41 41 42 42 41 41 42 42 42 42 42 42 41 41 40 39 39 38 38 37 37 36 36 36 36 36
43 44 45 46 47 48 49 50 51 52 53 54 55 56 57 58 59 60 61 62 63 64 65 66 67 68 69 69 70 70 71 71 72 73 73 74 74 74 74 74 74 73 72 70 67 64 61 57 53 49 46 43 41 40 40 39 39 38 38 39 39 40 40 41 40 40 40 40 40 41 41 41 41 41 41 40 40 39 39 38 37 36 36 35 35 35
44 45 46 47 48 49 50 51 52 53 53 54 55 56 57 58 59 60 61 62 63 64 65 66 67 68 69 70 70 71 71 72 72 73 73 74 74 74 73 73 72 72 70 68 65 61 57 54 50 46 44 42 41 40 40 39 39 39 38 38 38 39 39 40 40 39 39 39 39 39 39 39 40 40 40 40 40 40 39 39 38 37 36 35 34 34
45 46 47 48 49 50 50 51 52 53 54 55 56 57 58 59 59 60 61 62 63 64 65 66 67 68 69 70 70 71 72 72 72 73 73 73 73 73 73 72 71 70 68 65 62 58 54 50 47 45 43 42 41 40 40 40 40 40 39 39 38 38 39 39 39 38 38 38 38 38 37 38 38 38 39 39 40 40 39 39 38 37 36 35 33 33
46 47 48 48 49 50 51 52 53 54 55 55 56 57 58 59 60 61 61 62 63 64 64 65 66 67 69 70 71 71 72 72 72 73 73 73 73 73 72 71 70 68 65 62 59 55 51 47 45 44 43 42 41 41 41 41 41 41 41 40 39 38 38 38 38 38 38 37 37 37 36 36 36 37 37 38 39 39 40 39 39 38 37 35 33 32
46 47 48 49 50 51 52 53 53 54 55 56 57 57 58 59 60 60 61 62 63 64 64 65 66 67 68 69 70 71 72 72 72 72 72 72 72 72 71 70 68 66 62 59 55 51 48 45 43 42 42 42 42 42 42 42 42 42 42 41 40 39 38 38 38 38 37 37 37 36 36 35 35 35 36 36 37 38 39 39 39 39 38 36 34 32
47 48 49 49 50 51 52 53 54 55 56 56 57 58 58 59 60 60 61 62 62 63 64 64 65 66 67 68 69 70 71 72 72 72 72 72 71 70 69 68 66 63 59 55 51 48 45 43 41 41 42 42 42 43 42 42 42 42 42 41 40 39 38 38 37 37 36 36 36 36 35 35 34 34 34 35 36 36 37 38 39 39 38 37 35 33
47 48 49 50 51 52 53 53 54 55 56 57 57 58 59 59 60 60 61 62 62 63 64 64 65 66 66 67 68 69 70 71 72 72 71 71 70 69 67 66 63 60 56 52 48 45 43 41 41 41 41 42 43 43 43 43 42 42 41 40 40 39 38 37 36 36 35 34 34 34 34 34 33 33 33 34 34 35 36 37 38 38 38 37 36 34
48 49 49 50 51 52 53 54 55 55 56 57 57 58 59 59 60 61 61 62 62 63 64 64 65 65 66 67 67 68 68 69 70 70 70 70 69 67 65 63 60 57 53 49 45 42 40 40 40 41 41 42 42 43 43 42 42 41 40 39 38 38 37 36 35 34 33 32 32 32 32 32 32 32 32 33 33 34 35 36 37 38 38 37 36 35
48 49 50 51 52 52 53 54 55 56 56 57 58 58 59 60 60 61 61 62 62 63 64 64 65 65 66 66 67 67 67 68 68 69 68 68 67 65 63 60 57 53 50 46 42 40 39 39 39 40 41 42 42 42 42 42 41 40 39 38 37 36 35 34 33 32 31 31 31 31 31 32 32 32 32 32 32 33 34 35 36 37 37 37 36 35
49 49 50 51 52 53 53 54 55 56 56 57 58 58 59 59 60 61 61 62 62 63 64 64 65 65 66 66 67 67 67 67 67 67 67 66 65 63 60 58 54 51 47 43 40 38 38 38 39 40 41 41 41 41 41 41 40 39 38 37 36 34 33 32 31 30 30 30 30 31 31 32 32 32 32 31 31 32 33 34 35 36 37 37 36 35
49 50 50 51 52 53 54 54 55 56 56 57 58 58 59 59 60 60 61 62 62 63 63 64 65 65 66 66 67 67 66 66 66 66 65 64 62 61 58 55 52 48 44 41 38 36 37 38 39 40 41 41 41 41 40 39 39 38 37 36 35 34 32 31 30 29 29 30 31 32 32 33 33 33 33 32 31 31 32 33 34 36 36 36 36 35
49 50 51 51 52 53 54 54 55 56 56 57 58 58 59 60 60 60 61 62 62 63 63 64 64 65 66 66 67 67 66 66 66 65 64 62 61 58 56 53 49 46 42 39 37 35 36 37 38 39 40 40 40 40 39 38 38 37 36 35 34 33 32 31 30 30 30 31 32 33 34 35 35 35 35 34 33 32 32 32 33 35 36 36 36 35
50 50 51 51 52 53 54 54 55 55 56 57 57 58 59 59 60 60 61 61 62 63 63 64 64 65 65 66 66 66 66 65 65 64 63 61 59 57 54 51 48 44 41 38 36 35 35 35 36 37 39 39 40 40 39 38 37 36 35 35 34 33 33 32 31 31 32 33 34 35 36 36 36 37 36 36 35 34 33 32 33 34 35 36 36 36
50 50 51 52 52 53 54 54 55 55 56 56 57 58 58 59 60 60 61 61 62 63 63 64 64 65 65 65 66 66 65 65 64 63 62 60 58 55 52 49 46 43 40 37 35 34 34 33 34 35 37 38 39 39 39 38 36 35 34 34 34 34 33 33 33 33 34 35 36 37 37 38 38 38 37 37 36 35 34 33 33 33 34 35 35 36
Wind_Direction
278 279 279 279 279 279 279 279 279 279 279 279 279 279 279 279 278 278 278 278 278 278 278 278 279 279 280 280 280 281 281 281 281 282 282 282 282 282 283 283 283 283 283 283 283 283 283 283 283 282 282 282 281 281 281 280 280 279 279 278 278 277 277 276 276 275 274 273 273 272 271 270 269 268 267 267 266 265 265 264 263 263 262 262 261 261
278 278 278 278 278 278 278 278 279 279 279 279 279 279 279 279 279 279 279 279 279 279 280 280 280 281 281 282 282 282 282 283 283 283 283 284 284 284 284 284 285 285 285 285 285 285 285 284 284 284 284 283 283 283 282 282 281 281 280 280 279 279 278 278 277 277 276 275 275 274 273 272 271 270 269 268 267 266 266 265 264 263 263 262 261 261
277 277 277 277 277 277 278 278 278 278 278 278 278 278 278 278 279 279 280 280 280 281 281 281 282 282 282 283 283 283 284 284 284 284 285 285 286 286 286 286 286 286 286 286 286 286 286 285 285 285 285 284 284 283 283 282 282 281 281 280 280 279 279 278 278 277 276 276 275 275 274 273 273 272 271 270 269 268 267 266 266 265 264 263 262 261
275 276 276 276 276 276 276 277 277 277 277 277 277 278 278 278 279 279 280 280 281 281 282 282 283 283 283 284 284 284 285 285 286 286 286 287 287 287 287 287 287 287 287 287 287 287 286 286 286 286 285 285 284 284 284 283 283 282 282 281 280 280 279 278 278 277 276 276 275 274 274 273 273 272 272 271 271 270 269 268 267 266 265 264 263 262
275 275 275 276 276 276 276 276 276 276 277 277 277 278 278 278 279 279 280 280 281 282 282 283 283 284 284 285 285 286 286 286 287 287 287 287 288 288 288 288 288 288 288 288 288 288 287 287 287 287 286 286 285 285 284 284 283 283 282 281 281 280 279 278 278 277 276 275 275 274 273 273 272 272 271 271 271 270 270 269 269 268 267 266 264 263
274 274 275 275 275 275 276 276 276 277 277 277 277 277 278 278 279 279 280 281 282 283 284 284 285 285 286 286 286 287 287 287 288 288 288 288 288 289 289 289 289 289 289 289 289 289 289 289 288 288 288 287 287 286 285 285 284 283 283 282 281 280 279 279 278 277 276 275 275 274 273 272 271 271 270 270 270 270 269 269 268 268 267 266 265 264
274 274 275 275 275 275 276 276 276 276 276 277 277 277 278 279 280 281 282 283 284 284 285 286 286 287 287 287 287 288 288 288 288 289 289 289 290 290 290 290 290 290 290 291 291 291 290 290 290 290 289 289 288 288 287 286 285 284 283 282 281 280 279 278 278 277 276 275 274 274 273 272 271 270 270 269 269 268 268 268 267 267 266 266 265 265
274 274 274 275 275 275 274 274 274 275 275 276 277 279 280 281 282 283 284 284 285 285 286 287 287 287 288 288 288 289 289 289 290 290 290 291 291 291 292 292 292 292 292 292 293 293 293 292 292 292 291 291 290 290 289 288 287 286 285 283 282 281 280 278 277 276 275 275 274 273 272 272 271 270 269 268 268 267 267 266 266 266 265 265 264 264
274 274 273 273 273 273 273 273 274 275 276 277 279 280 282 283 284 284 285 285 285 286 286 287 288 288 288 289 289 289 290 290 291 291 292 292 293 293 294 294 295 295 295 295 295 295 295 295 294 294 293 293 292 292 291 290 289 288 286 285 284 282 281 279 278 276 275 274 273 272 271 271 270 269 269 268 267 266 265 265 264 264 264 264 263 263
272 272 271 271 271 272 273 274 275 277 278 279 280 281 282 283 284 284 285 285 286 286 287 287 288 289 289 290 290 291 292 292 293 294 294 295 296 296 297 297 298 298 298 298 298 297 297 296 296 295 295 294 293 293 292 291 290 289 287 286 285 283 282 280 278 277 275 274 273 272 271 270 269 268 268 267 266 265 265 264 263 263 262 262 262 262
269 269 270 270 271 273 275 276 278 279 279 280 281 281 281 282 283 283 284 285 286 286 287 287 288 289 290 291 292 293 294 295 296 297 298 298 299 299 299 299 299 299 299 298 298 297 297 296 296 296 295 294 294 293 292 292 290 289 288 287 285 284 282 281 279 278 276 274 273 272 270 269 268 267 266 266 265 264 264 263 262 262 261 261 260 260
268 269 270 272 274 275 276 277 279 279 280 280 281 281 281 281 282 283 284 285 286 287 288 289 290 291 292 293 295 296 297 298 298 299 299 300 300 299 299 298 298 297 297 296 296 296 296 296 296 296 296 296 295 295 294 293 292 290 289 287 286 284 283 281 279 278 276 275 273 272 270 269 268 267 266 265 264 263 263 262 261 261 260 259 259 259
269 271 272 274 275 276 277 277 278 279 279 280 281 281 282 282 283 284 285 286 288 289 290 291 292 293 294 295 296 297 298 298 298 298 298 297 296 296 296 295 295 295 295 296 296 296 297 297 297 297 297 297 297 296 296 294 293 292 290 289 287 285 283 282 280 278 277 275 274 272 271 269 268 266 265 264 263 262 262 261 260 260 259 258 258 257
271 272 273 274 275 276 277 277 278 279 280 280 282 283 284 285 286 287 288 289 290 291 292 293 294 295 296 296 297 297 297 296 296 295 294 294 294 294 294 295 295 296 297 297 298 298 299 299 299 299 300 299 299 298 298 296 295 294 292 290 288 286 284 283 281 279 277 276 274 272 271 269 268 266 265 264 262 261 261 260 259 259 258 257 257 256
271 272 273 274 275 276 277 278 279 280 281 283 284 285 286 287 289 290 291 291 292 293 294 295 295 296 296 296 296 295 294 294 293 293 293 294 294 295 296 297 297 298 298 299 299 300 300 301 301 302 302 301 301 300 299 298 297 295 294 292 290 288 286 284 282 280 278 276 274 273 271 270 268 266 265 263 262 261 260 259 258 257 257 256 256 255
271 272 274 275 276 278 279 281 282 283 285 286 287 288 289 290 291 292 292 293 293 294 294 295 295 295 295 294 294 293 293 293 293 294 295 295 296 297 298 298 299 299 300 300 301 301 302 303 303 303 303 303 303 302 301 300 299 297 296 294 292 290 287 285 283 281 279 277 275 273 272 270 268 267 265 264 262 261 259 258 257 256 256 255 254 254
273 275 277 278 280 282 283 284 285 287 288 289 290 290 291 292 292 292 293 293 293 293 293 293 292 292 292 292 292 292 293 294 294 295 296 297 297 298 299 299 300 300 301 302 302 303 304 304 305 305 305 305 305 304 303 302 300 299 297 295 293 291 289 287 285 282 280 278 276 274 272 271 269 267 266 264 262 261 259 258 257 256 255 254 253 253
277 279 281 283 284 285 286 287 288 289 290 290 291 292 292 292 292 293 293 292 292 292 291 291 290 290 291 291 292 293 294 295 295 296 297 297 298 299 300 300 301 301 302 303 304 305 305 306 306 307 307 307 306 305 304 303 302 301 299 297 295 293 291 289 287 284 282 280 277 275 273 271 270 268 266 265 263 261 260 258 257 256 254 253 252 252
282 283 285 286 287 287 288 289 290 290 291 291 292 292 292 292 292 292 292 291 291 290 290 290 291 291 292 293 294 294 295 296 297 297 298 299 299 300 301 302 302 303 304 305 306 306 307 308 308 308 308 308 308 307 306 305 304 302 301 299 297 295 293 291 289 286 284 282 279 277 275 273 271 269 267 266 264 262 260 259 257 255 254 253 252 251
285 285 286 287 288 288 289 290 290 291 291 291 292 292 291 291 291 291 291 291 291 291 291 292 293 293 294 295 295 296 297 297 298 299 299 300 301 301 302 303 304 305 306 306 307 308 309 309 310 310 310 309 309 308 307 306 305 304 302 301 299 297 295 293 291 288 286 284 281 279 277 275 273 271 269 267 265 263 261 260 258 256 254 253 252 250
285 286 287 288 288 289 290 290 291 291 291 291 291 290 290 290 290 290 291 291 292 293 293 294 295 295 296 296 297 298 299 299 300 301 301 302 302 303 304 305 306 307 307 308 309 310 310 311 311 311 311 311 310 309 308 307 306 305 304 302 301 299 297 295 293 291 288 286 284 281 279 277 274 272 270 268 266 264 263 261 259 257 255 253 251 250
286 287 287 288 289 290 290 291 291 290 290 290 290 290 290 290 291 291 292 293 294 295 295 296 297 297 298 298 299 300 301 301 302 303 304 304 304 305 306 307 308 309 309 310 311 311 312 312 312 312 312 311 311 310 309 308 307 306 305 304 302 301 299 297 295 293 291 288 286 284 281 279 277 274 272 270 268 266 264 262 260 258 255 253 251 250
287 288 289 289 290 290 290 290 290 290 290 290 290 290 291 292 292 293 294 295 296 297 298 298 299 299 300 300 301 302 303 304 304 305 306 306 306 307 308 309 309 310 311 311 312 312 313 313 312 312 312 312 311 311 310 309 308 307 306 305 303 302 301 299 297 295 293 291 289 286 284 282 279 277 274 272 270 267 265 263 261 258 256 254 252 250
288 289 290 290 290 290 290 290 290 290 290 291 291 292 293 294 295 295 296 297 298 299 299 300 301 301 302 303 303 304 305 306 307 307 307 308 308 309 309 310 311 311 312 312 313 313 313 313 313 313 312 312 312 311 310 310 309 308 307 306 305 304 302 301 299 298 296 294 292 289 287 285 282 280 277 274 272 269 266 264 261 259 257 255 252 250
290 290 290 290 290 290 290 290 290 291 292 293 294 294 295 296 297 297 298 298 299 300 301 302 302 303 304 305 305 306 307 308 308 309 309 309 309 310 310 311 312 312 313 314 314 314 314 313 313 313 313 312 312 311 311 310 309 308 307 307 306 305 304 303 302 300 298 297 295 292 290 288 285 282 280 277 274 271 268 265 263 260 257 255 252 250
290 290 290 290 290 291 291 292 293 293 294 295 296 297 297 298 298 299 299 300 301 302 303 303 304 305 306 306 307 307 308 309 309 310 310 310 310 311 311 312 313 313 314 314 315 315 314 314 313 313 313 312 312 311 311 310 309 309 308 308 307 307 306 305 304 303 301 299 298 296 293 291 288 286 283 280 277 274 271 267 264 261 258 255 253 250
291 291 291 292 292 293 294 294 295 296 297 297 298 299 299 300 300 301 301 302 303 303 304 305 306 306 307 308 308 309 309 310 310 311 311 311 311 312 312 313 313 314 315 315 315 315 315 314 314 313 313 312 312 311 310 310 309 309 309 309 309 309 308 307 307 305 304 303 301 299 297 295 292 290 287 284 281 277 274 270 266 263 259 256 253 250
292 293 294 294 295 296 296 297 298 298 299 299 300 300 301 301 302 303 303 304 305 305 306 307 307 308 308 309 309 310 310 311 311 312 312 312 312 312 313 314 314 315 315 316 316 316 315 315 314 314 313 312 311 310 310 309 309 309 309 310 310 310 310 310 309 308 307 306 305 303 301 299 297 294 291 288 285 281 278 274 269 265 261 258 254 251
295 295 296 297 298 298 299 299 300 300 301 301 302 302 303 303 304 305 305 306 306 307 307 308 308 309 310 310 310 311 311 312 312 313 313 313 313 313 314 314 315 315 316 316 316 316 316 315 314 314 313 312 310 309 309 309 309 310 310 311 312 313 313 312 312 311 310 309 308 307 305 304 302 299 296 293 290 286 282 278 274 269 265 260 256 252
297 298 298 299 300 300 301 302 302 303 303 303 304 304 305 305 306 307 307 308 308 309 309 309 310 310 310 311 311 311 312 312 313 313 314 314 314 314 315 315 315 316 316 316 316 316 316 315 314 313 312 311 310 309 308 308 309 310 312 313 314 314 315 315 315 314 313 312 312 311 310 308 307 304 302 299 296 292 288 283 279 274 269 264 259 254
299 300 301 301 302 302 303 303 304 304 305 305 306 306 307 307 308 308 309 309 309 310 310 310 311 311 311 312 312 312 312 313 313 314 314 315 315 315 316 316 316 316 317 317 317 317 316 316 315 314 312 311 309 308 307 308 309 311 313 314 315 316 317 317 317 317 316 315 314 314 313 312 311 310 308 305 302 299 294 290 285 280 274 268 263 258
302 302 303 303 304 304 304 305 305 306 307 307 308 308 309 309 309 310 310 310 310 311 311 311 312 312 312 313 313 313 313 314 314 315 315 316 316 316 316 317 317 317 317 318 317 317 317 316 315 314 312 310 309 308 307 308 309 312 314 315 317 318 319 319 320 319 318 318 317 316 316 315 315 314 312 310 308 305 301 297 292 286 280 274 268 262
303 304 304 304 305 305 306 306 307 307 308 308 309 309 310 310 310 311 311 311 311 312 312 312 312 313 313 314 314 314 314 315 315 315 316 316 317 317 317 318 318 318 318 318 318 318 317 317 316 315 313 311 309 307 307 308 310 312 314 316 317 319 320 321 321 321 320 320 319 317 317 316 316 316 315 313 312 310 307 303 299 294 288 281 274 267
304 305 305 306 306 307 307 308 308 309 309 310 310 310 311 311 312 312 312 312 312 312 313 313 313 314 314 314 315 315 315 315 316 316 317 317 318 318 318 318 319 319 319 319 318 318 318 317 316 315 313 311 309 307 307 308 310 312 314 316 317 318 319 321 321 322 322 321 320 319 318 317 317 316 315 315 314 312 310 308 305 301 295 289 281 273
305 306 306 307 307 308 308 309 309 310 310 311 311 311 312 312 312 313 313 313 313 313 313 314 314 314 315 315 315 316 316 316 316 317 317 318 318 319 319 319 319 319 319 319 319 318 318 317 315 314 313 311 309 308 308 309 310 312 314 315 317 318 318 319 320 321 321 321 320 320 319 318 317 316 315 315 314 313 312 310 308 305 301 296 289 282
307 307 308 308 308 309 309 310 310 311 311 311 312 312 312 313 313 313 314 314 314 314 314 314 314 315 315 316 316 316 317 317 317 318 318 319 319 320 320 320 320 320 320 320 319 318 318 317 315 314 312 311 310 309 309 309 311 312 314 315 316 316 317 317 318 319 319 319 319 319 319 318 317 316 315 314 314 313 312 311 310 308 305 302 296 290
308 308 309 309 309 310 310 311 311 311 312 312 312 313 313 313 314 314 314 315 315 315 315 315 315 316 316 316 317 317 317 318 318 318 319 319 320 320 321 321 321 321 320 320 319 319 318 317 316 314 313 311 310 310 310 310 311 312 313 314 315 315 315 316 316 317 317 317 317 317 317 317 317 316 315 314 313 313 312 311 310 309 307 305 301 296
308 309 309 310 310 310 311 311 311 312 312 312 313 313 313 314 314 315 315 315 315 316 316 316 316 316 317 317 317 318 318 318 319 319 320 320 321 321 322 322 321 321 321 321 320 319 318 317 315 314 313 312 311 311 311 311 312 312 313 314 315 314 314 315 315 315 315 315 315 315 315 315 315 315 314 314 313 312 311 311 310 310 309 307 305 301
309 309 310 310 310 311 311 311 312 312 312 313 313 313 314 314 315 315 315 316 316 316 317 317 317 317 318 318 318 319 319 319 320 320 321 321 322 322 322 322 322 322 322 321 320 319 318 317 315 314 313 313 313 313 313 313 313 314 314 315 315 314 314 314 314 314 314 314 313 313 313 313 313 313 313 312 312 311 310 310 310 309 308 307 306 303
309 309 310 310 311 311 311 312 312 312 313 313 313 314 314 314 315 315 316 316 316 317 317 318 318 318 318 319 319 319 320 320 321 321 322 322 322 323 323 323 323 322 322 321 320 319 318 317 316 315 315 314 314 314 314 315 315 315 315 315 316 315 315 314 314 313 313 313 312 312 312 312 312 311 311 311 310 310 310 309 309 308 308 306 305 303
309 310 310 310 311 311 312 312 312 312 313 313 313 314 314 315 315 316 316 316 317 317 318 318 319 319 319 320 320 320 321 321 321 322 322 323 323 323 323 323 323 323 322 321 320 319 318 317 316 315 315 316 316 316 316 316 317 317 317 317 317 316 316 315 315 314 314 313 312 311 311 311 311 310 310 309 309 309 309 309 308 308 307 306 305 303
309 310 310 311 311 311 312 312 312 312 313 313 313 314 314 315 315 316 317 317 317 318 318 319 319 320 320 320 321 321 322 322 322 323 323 323 324 324 324 324 324 323 322 321 320 319 317 317 316 316 316 316 317 317 317 318 318 318 318 318 318 318 317 317 316 316 315 314 313 312 311 310 310 309 309 308 307 307 308 308 308 308 307 306 305 303
309 310 310 311 311 311 312 312 312 313 313 313 314 314 315 315 316 316 317 317 318 318 319 319 320 320 321 321 321 322 322 323 323 323 323 324 324 324 324 324 324 323 322 321 320 319 317 317 316 316 317 317 317 318 318 318 319 319 319 319 319 319 319 318 318 317 316 316 314 313 312 311 310 309 308 307 306 306 306 306 307 307 307 307 306 304
309 310 310 311 311 311 312 312 313 313 313 314 314 314 315 315 316 317 317 318 318 319 319 319 320 320 321 321 322 322 323 323 323 324 324 324 324 325 325 324 324 323 322 320 319 318 317 317 316 317 317 318 318 318 318 319 319 320 320 320 320 321 321 321 320 320 320 319 318 317 315 314 312 310 309 307 306 305 305 305 305 306 307 307 307 305
309 310 310 311 311 312 312 312 313 313 313 314 314 315 315 316 316 317 318 318 319 319 319 320 320 321 321 322 322 323 323 323 324 324 324 324 325 325 325 325 324 323 321 320 318 317 317 317 317 317 317 318 318 319 319 319 320 320 321 321 322 322 322 323 323 324 324 324 324 323 322 320 317 314 312 309 306 305 303 303 303 304 305 306 307 306
309 310 310 311 311 312 312 313 313 313 314 314 315 315 316 316 317 317 318 319 319 320 320 320 321 322 322 322 323 323 323 323 324 324 324 324 325 325 325 324 323 322 320 319 318 317 317 317 317 317 318 318 319 319 319 320 320 321 321 322 322 323 323 324 325 327 328 330 330 330 330 328 325 322 318 314 309 306 303 302 301 302 303 304 306 306
309 309 310 311 311 312 312 313 313 314 314 315 315 315 316 317 317 318 318 319 320 320 321 321 322 322 323 323 323 323 324 324 324 324 324 324 325 325 324 324 323 321 319 318 317 316 317 317 318 318 318 319 319 319 320 320 320 321 321 322 322 323 323 324 325 327 330 332 333 334 335 334 333 330 327 322 316 310 305 302 300 300 301 302 304 305
309 309 310 311 311 312 312 313 313 314 314 315 315 316 316 317 318 319 319 320 320 321 321 322 322 323 323 323 324 324 324 324 324 324 324 324 324 324 324 323 322 320 318 316 315 316 317 318 318 319 319 319 319 320 320 320 321 321 321 322 322 322 322 323 324 326 327 329 331 332 333 334 334 334 333 330 325 318 311 305 301 299 299 300 302 303
309 309 310 311 311 312 312 313 314 314 315 315 316 316 317 318 318 319 319 320 321 321 322 322 323 323 323 324 324 324 324 324 324 324 324 324 324 324 323 322 321 319 317 315 314 315 316 317 318 319 319 320 320 320 320 321 321 321 321 321 321 321 321 321 322 322 323 324 325 326 327 329 330 331 332 332 330 326 319 311 305 301 298 298 299 301
308 309 310 311 311 312 312 313 314 314 315 315 316 317 317 318 318 319 320 320 321 322 322 323 323 324 324 324 324 324 324 324 324 324 324 324 324 324 323 321 319 317 315 313 313 313 315 316 318 319 319 320 320 320 321 321 321 321 321 320 320 320 319 319 319 319 319 319 320 320 321 322 323 325 327 329 330 329 325 319 311 305 300 298 298 298
308 309 310 310 311 312 312 313 314 314 315 315 316 317 317 318 319 320 320 321 322 322 322 323 323 324 324 324 324 324 324 324 324 324 324 324 324 323 322 320 318 316 313 312 311 311 313 314 316 317 319 320 321 321 321 321 321 321 320 319 319 318 317 316 316 316 316 316 316 316 316 316 317 318 320 322 325 327 327 323 317 310 304 300 297 296
Height
5683 5683 5683 5682 5681 5680 5679 5679 5678 5678 5677 5676 5676 5675 5675 5674 5674 5673 5673 5673 5673 5672 5672 5672 5672 5671 5671 5671 5671 5670 5670 5669 5669 5668 5668 5668 5667 5666 5666 5665 5665 5664 5664 5663 5663 5662 5661 5661 5660 5660 5659 5658 5658 5657 5657 5656 5656 5655 5655 5654 5654 5654 5653 5653 5653 5652 5652 5651 5651 5651 5651 5651 5651 5651 5651 5650 5651 5651 5652 5652 5653 5655 5656 5658 5659 5660
5679 5679 5678 5678 5678 5677 5675 5675 5675 5674 5673 5673 5672 5672 5671 5671 5670 5669 5669 5669 5669 5669 5668 5668 5668 5668 5668 5667 5667 5667 5666 5666 5665 5665 5664 5664 5663 5663 5662 5662 5661 5660 5660 5659 5658 5658 5657 5657 5656 5655 5655 5654 5653 5653 5652 5652 5651 5651 5650 5650 5649 5648 5648 5648 5647 5646 5646 5645 5645 5644 5644 5644 5644 5643 5643 5643 5643 5643 5643 5644 5645 5647 5648 5649 5651 5652
5676 5675 5675 5674 5674 5673 5672 5672 5672 5671 5670 5670 5669 5669 5668 5668 5667 5666 5666 5666 5665 5665 5665 5665 5665 5665 5664 5664 5664 5663 5663 5662 5662 5661 5661 5660 5660 5659 5658 5658 5657 5657 5656 5655 5654 5654 5653 5653 5652 5651 5650 5649 5649 5648 5648 5647 5646 5646 5645 5644 5644 5643 5643 5642 5642 5641 5640 5639 5639 5638 5638 5638 5637 5637 5637 5637 5636 5636 5636 5637 5638 5639 5640 5641 5643 5644
5673 5672 5671 5671 5671 5670 5669 5669 5668 5668 5668 5667 5666 5666 5665 5665 5664 5663 5663 5663 5663 5662 5662 5662 5662 5662 5661 5661 5661 5660 5660 5659 5659 5658 5658 5657 5656 5656 5655 5654 5653 5653 5652 5651 5650 5650 5649 5648 5647 5647 5646 5645 5644 5643 5643 5642 5641 5640 5640 5639 5638 5638 5637 5636 5636 5635 5634 5633 5633 5633 5632 5632 5631 5631 5631 5630 5630 5630 5630 5630 5631 5632 5633 5633 5635 5636
5669 5669 5668 5668 5668 5667 5666 5666 5665 5665 5664 5664 5663 5663 5662 5662 5661 5661 5660 5660 5660 5659 5659 5659 5659 5659 5658 5658 5658 5657 5657 5656 5655 5655 5654 5654 5653 5652 5651 5651 5650 5649 5648 5647 5646 5645 5645 5644 5643 5642 5641 5640 5639 5638 5638 5637 5636 5635 5634 5633 5633 5632 5631 5630 5629 5629 5628 5627 5627 5626 5626 5625 5625 5625 5624 5624 5624 5624 5624 5624 5624 5625 5625 5626 5627 5627
5666 5666 5665 5665 5664 5664 5663 5663 5663 5662 5661 5661 5660 5660 5659 5659 5658 5658 5658 5658 5657 5657 5657 5657 5657 5656 5656 5655 5655 5654 5653 5653 5652 5652 5651 5650 5649 5648 5648 5647 5646 5645 5644 5643 5642 5641 5640 5639 5638 5637 5636 5635 5634 5633 5633 5632 5631 5630 5629 5628 5627 5626 5625 5624 5623 5622 5621 5621 5620 5619 5619 5618 5618 5618 5618 5618 5618 5618 5618 5618 5618 5618 5618 5619 5619 5619
5663 5662 5662 5661 5661 5661 5660 5660 5659 5659 5659 5658 5658 5657 5657 5656 5656 5656 5655 5655 5655 5654 5654 5654 5654 5653 5653 5653 5652 5651 5650 5650 5649 5648 5648 5647 5646 5645 5644 5643 5642 5641 5640 5638 5638 5637 5636 5634 5633 5632 5631 5630 5629 5628 5627 5626 5625 5624 5623 5622 5621 5620 5618 5618 5617 5616 5615 5614 5613 5612 5612 5611 5611 5611 5611 5611 5611 5611 5611 5611 5611 5611 5612 5612 5612 5613
5659 5659 5659 5658 5658 5658 5657 5657 5657 5657 5656 5656 5655 5655 5654 5654 5653 5653 5653 5653 5652 5652 5652 5651 5651 5651 5650 5649 5648 5648 5647 5646 5645 5645 5644 5643 5642 5641 5640 5638 5637 5636 5635 5634 5633 5632 5630 5629 5628 5627 5625 5624 5623 5622 5620 5619 5618 5617 5616 5615 5614 5613 5612 5611 5609 5608 5608 5607 5606 5605 5604 5604 5603 5603 5603 5603 5603 5603 5603 5604 5604 5604 5605 5605 5606 5606
5656 5656 5656 5656 5655 5655 5655 5654 5654 5654 5654 5653 5653 5653 5653 5652 5651 5651 5650 5650 5649 5649 5649 5648 5648 5648 5647 5646 5645 5644 5643 5643 5642 5641 5640 5639 5638 5637 5635 5634 5633 5631 5630 5628 5627 5626 5625 5623 5622 5621 5619 5618 5617 5615 5614 5612 5611 5609 5608 5607 5606 5604 5603 5603 5602 5601 5600 5599 5598 5597 5597 5596 5596 5595 5595 5595 5595 5596 5596 5596 5596 5597 5598 5598 5598 5599
5653 5653 5653 5653 5653 5653 5652 5652 5652 5652 5651 5651 5651 5651 5650 5650 5649 5648 5648 5648 5647 5647 5646 5646 5645 5645 5644 5643 5642 5641 5640 5639 5638 5637 5636 5635 5633 5632 5630 5629 5627 5626 5624 5623 5621 5620 5619 5617 5616 5614 5613 5612 5610 5609 5607 5606 5604 5602 5600 5599 5597 5596 5595 5594 5593 5592 5591 5590 5589 5589 5588 5588 5587 5587 5587 5587 5587 5587 5588 5588 5588 5589 5590 5590 5591 5592
5651 5651 5651 5651 5650 5650 5650 5650 5649 5649 5649 5648 5648 5648 5648 5648 5647 5647 5646 5645 5645 5644 5643 5643 5643 5642 5641 5640 5639 5638 5636 5635 5633 5632 5631 5630 5629 5627 5625 5624 5622 5621 5619 5618 5616 5615 5613 5612 5610 5608 5607 5606 5604 5603 5601 5599 5597 5595 5593 5591 5589 5587 5586 5584 5583 5582 5581 5580 5580 5579 5579 5578 5578 5578 5578 5578 5578 5578 5578 5579 5580 5581 5582 5583 5583 5584
5648 5648 5648 5648 5648 5648 5648 5648 5647 5647 5647 5646 5646 5646 5646 5645 5645 5644 5643 5643 5642 5642 5641 5640 5640 5639 5638 5637 5635 5634 5633 5631 5629 5628 5627 5626 5624 5623 5621 5620 5618 5617 5615 5614 5612 5610 5608 5607 5605 5603 5601 5599 5598 5596 5594 5591 5589 5587 5584 5582 5580 5578 5576 5574 5573 5572 5571 5570 5569 5569 5568 5568 5568 5568 5568 5568 5568 5569 5569 5570 5571 5572 5573 5574 5575 5576
5646 5646 5646 5646 5646 5646 5646 5645 5645 5645 5645 5644 5644 5643 5643 5643 5642 5642 5641 5640 5640 5639 5638 5637 5636 5636 5635 5634 5633 5631 5629 5628 5626 5625 5623 5623 5622 5620 5618 5617 5614 5613 5611 5609 5607 5605 5603 5601 5599 5597 5595 5593 5591 5588 5586 5583 5581 5578 5576 5573 5571 5568 5566 5564 5563 5561 5560 5559 5558 5558 5558 5557 5557 5557 5557 5558 5558 5559 5559 5560 5561 5562 5563 5565 5566 5568
5644 5644 5644 5644 5643 5643 5643 5643 5643 5643 5642 5642 5642 5641 5641 5640 5639 5639 5638 5637 5637 5636 5635 5633 5633 5632 5632 5631 5630 5628 5627 5625 5623 5622 5621 5619 5618 5617 5615 5613 5610 5608 5606 5604 5601 5599 5597 5595 5593 5590 5588 5586 5583 5581 5578 5575 5572 5569 5567 5564 5561 5559 5557 5554 5553 5551 5549 5548 5547 5546 5546 5545 5545 5545 5546 5546 5547 5548 5549 5550 5551 5552 5553 5555 5557 5558
5642 5642 5642 5642 5641 5641 5641 5641 5640 5640 5640 5639 5639 5638 5638 5637 5636 5636 5635 5634 5633 5633 5632 5630 5629 5628 5628 5628 5627 5626 5624 5623 5621 5619 5617 5615 5613 5613 5611 5608 5604 5602 5600 5598 5595 5592 5590 5588 5586 5583 5581 5578 5575 5572 5569 5566 5563 5560 5557 5554 5551 5549 5546 5544 5542 5540 5538 5537 5536 5535 5534 5533 5533 5533 5533 5534 5535 5536 5537 5538 5540 5542 5543 5545 5547 5548
5640 5640 5639 5639 5639 5639 5639 5638 5638 5637 5637 5637 5636 5635 5635 5634 5633 5633 5632 5631 5630 5629 5628 5627 5626 5625 5624 5624 5623 5623 5621 5619 5617 5615 5613 5610 5608 5607 5606 5603 5599 5596 5594 5592 5589 5586 5583 5581 5578 5576 5573 5570 5567 5564 5561 5557 5554 5551 5548 5544 5541 5538 5536 5533 5531 5529 5528 5526 5525 5523 5522 5522 5521 5521 5521 5522 5523 5523 5525 5527 5528 5530 5532 5534 5536 5538
5638 5637 5637 5637 5637 5636 5636 5636 5635 5635 5634 5633 5633 5633 5632 5631 5631 5630 5629 5628 5627 5626 5625 5625 5623 5623 5622 5621 5620 5619 5618 5616 5613 5611 5609 5606 5603 5602 5601 5598 5594 5591 5588 5586 5583 5580 5577 5574 5571 5568 5565 5562 5559 5555 5552 5548 5544 5541 5538 5534 5531 5528 5525 5523 5521 5519 5517 5515 5513 5512 5511 5510 5509 5508 5508 5509 5510 5511 5512 5514 5516 5518 5521 5523 5526 5528
5635 5635 5634 5634 5634 5633 5633 5633 5633 5632 5631 5631 5630 5629 5629 5628 5628 5627 5626 5625 5624 5623 5622 5622 5620 5619 5618 5617 5616 5616 5615 5612 5610 5608 5605 5602 5599 5597 5596 5593 5589 5586 5582 5579 5576 5573 5569 5566 5563 5560 5557 5553 5550 5546 5542 5538 5535 5531 5528 5524 5521 5518 5515 5512 5510 5508 5506 5504 5503 5501 5499 5498 5497 5497 5496 5497 5497 5498 5499 5501 5503 5506 5508 5511 5514 5517
5633 5633 5632 5632 5631 5631 5631 5630 5630 5629 5629 5628 5627 5627 5626 5625 5624 5624 5623 5622 5621 5620 5619 5618 5616 5615 5614 5613 5612 5611 5611 5608 5606 5604 5602 5598 5595 5593 5591 5588 5584 5580 5576 5573 5569 5565 5562 5558 5554 5551 5548 5544 5540 5537 5533 5529 5525 5521 5518 5514 5511 5508 5504 5502 5499 5497 5495 5493 5492 5490 5488 5487 5486 5485 5485 5484 5485 5486 5487 5489 5491 5493 5496 5499 5503 5506
5630 5630 5630 5629 5629 5629 5628 5628 5627 5627 5626 5625 5624 5624 5623 5623 5622 5621 5620 5619 5618 5616 5615 5613 5612 5611 5610 5609 5608 5607 5606 5604 5602 5599 5597 5594 5590 5587 5585 5583 5579 5574 5570 5566 5561 5557 5553 5549 5545 5542 5538 5534 5531 5527 5523 5519 5515 5512 5508 5504 5501 5498 5494 5492 5489 5487 5485 5483 5481 5479 5478 5476 5475 5474 5473 5473 5473 5474 5475 5477 5478 5481 5484 5488 5491 5495
5628 5628 5628 5627 5627 5626 5626 5625 5624 5624 5623 5622 5622 5621 5620 5620 5619 5618 5617 5615 5614 5612 5611 5609 5608 5606 5605 5604 5602 5601 5601 5599 5597 5595 5592 5589 5585 5582 5579 5577 5573 5569 5564 5559 5554 5549 5545 5540 5536 5532 5529 5525 5521 5517 5513 5510 5506 5502 5498 5494 5491 5488 5485 5482 5479 5477 5475 5473 5471 5469 5468 5466 5465 5464 5463 5463 5462 5463 5463 5465 5467 5469 5472 5475 5479 5483
5626 5626 5625 5625 5624 5624 5623 5623 5622 5621 5620 5619 5619 5618 5618 5617 5615 5614 5613 5612 5610 5608 5606 5604 5603 5601 5600 5598 5597 5596 5595 5593 5592 5589 5587 5583 5580 5576 5573 5571 5567 5563 5558 5553 5548 5542 5537 5532 5527 5523 5519 5516 5512 5508 5504 5500 5497 5493 5489 5485 5482 5478 5476 5473 5470 5468 5465 5463 5461 5459 5458 5456 5455 5454 5453 5452 5452 5452 5453 5454 5455 5458 5460 5464 5468 5472
5624 5623 5623 5622 5622 5621 5620 5620 5619 5618 5617 5617 5616 5615 5613 5613 5611 5610 5609 5607 5606 5604 5602 5600 5598 5596 5594 5593 5591 5590 5589 5588 5586 5583 5581 5578 5573 5570 5567 5565 5561 5557 5552 5547 5541 5536 5530 5524 5519 5514 5510 5506 5503 5499 5495 5492 5488 5484 5480 5477 5473 5470 5467 5464 5462 5459 5457 5455 5453 5451 5449 5447 5446 5445 5443 5443 5442 5442 5443 5443 5445 5447 5449 5453 5456 5460
5621 5621 5620 5619 5619 5618 5618 5617 5616 5615 5614 5613 5612 5611 5609 5608 5607 5605 5604 5603 5601 5599 5598 5596 5593 5591 5589 5588 5586 5584 5583 5582 5580 5577 5574 5571 5568 5564 5561 5558 5555 5551 5546 5540 5535 5530 5523 5517 5511 5506 5502 5498 5493 5490 5487 5483 5480 5476 5473 5469 5466 5463 5459 5457 5454 5451 5449 5447 5444 5443 5441 5439 5438 5436 5435 5434 5433 5433 5433 5434 5435 5437 5439 5442 5445 5449
5619 5618 5618 5617 5616 5616 5615 5614 5613 5612 5611 5609 5608 5607 5605 5604 5603 5601 5600 5598 5597 5595 5593 5591 5589 5587 5584 5583 5580 5578 5577 5576 5574 5572 5569 5565 5562 5558 5555 5552 5549 5545 5540 5535 5529 5523 5518 5511 5504 5499 5494 5489 5485 5481 5478 5475 5472 5468 5465 5462 5459 5456 5453 5450 5447 5444 5442 5440 5438 5435 5433 5432 5430 5428 5427 5426 5425 5425 5424 5425 5426 5427 5429 5432 5435 5438
5616 5616 5615 5614 5613 5613 5612 5611 5609 5608 5607 5606 5604 5603 5601 5600 5598 5597 5595 5594 5593 5591 5589 5587 5584 5582 5580 5577 5575 5573 5571 5570 5568 5566 5563 5560 5556 5552 5548 5546 5543 5539 5534 5529 5523 5518 5512 5505 5499 5493 5487 5482 5477 5473 5470 5468 5464 5462 5459 5456 5453 5449 5447 5444 5441 5438 5436 5433 5431 5429 5427 5425 5423 5422 5420 5419 5418 5417 5417 5417 5418 5419 5420 5423 5425 5428
5613 5613 5612 5611 5610 5609 5608 5607 5606 5604 5603 5602 5600 5599 5597 5596 5594 5593 5591 5590 5588 5586 5584 5582 5580 5578 5575 5572 5569 5567 5566 5564 5562 5560 5558 5554 5550 5546 5543 5539 5536 5533 5529 5524 5518 5513 5506 5500 5493 5487 5482 5476 5471 5467 5463 5460 5458 5455 5453 5450 5447 5444 5441 5438 5436 5433 5431 5428 5426 5424 5422 5420 5418 5416 5414 5413 5411 5410 5410 5410 5410 5411 5412 5414 5416 5419
5611 5610 5609 5608 5607 5606 5604 5603 5602 5600 5599 5598 5596 5595 5593 5592 5590 5588 5587 5585 5583 5581 5579 5577 5575 5573 5570 5567 5564 5562 5559 5558 5556 5554 5552 5548 5544 5540 5537 5533 5529 5526 5523 5519 5513 5507 5501 5494 5488 5482 5477 5471 5466 5461 5457 5454 5452 5450 5447 5445 5442 5439 5437 5434 5431 5429 5426 5423 5421 5419 5417 5415 5413 5411 5409 5408 5406 5405 5404 5403 5404 5404 5405 5407 5408 5411
5608 5606 5605 5604 5603 5602 5600 5599 5598 5596 5595 5593 5592 5590 5589 5587 5585 5583 5582 5580 5578 5576 5573 5572 5570 5567 5565 5562 5559 5556 5554 5552 5550 5548 5546 5543 5538 5534 5531 5527 5523 5519 5517 5513 5508 5503 5496 5489 5483 5477 5472 5466 5461 5456 5453 5449 5447 5445 5443 5440 5438 5435 5433 5430 5428 5425 5422 5420 5418 5415 5413 5411 5409 5407 5405 5403 5401 5400 5399 5398 5398 5398 5399 5400 5402 5403
5604 5603 5602 5600 5599 5598 5596 5595 5593 5592 5591 5589 5588 5586 5584 5583 5581 5579 5577 5575 5573 5571 5568 5566 5564 5562 5560 5557 5554 5551 5548 5546 5544 5542 5540 5536 5533 5528 5525 5521 5516 5512 5509 5507 5503 5498 5493 5486 5479 5473 5468 5462 5457 5452 5448 5445 5443 5440 5438 5436 5434 5431 5429 5427 5424 5422 5419 5417 5414 5412 5409 5408 5405 5403 5401 5399 5397 5396 5394 5393 5393 5393 5393 5394 5395 5397
5600 5599 5598 5597 5595 5594 5593 5591 5589 5588 5587 5585 5583 5582 5580 5578 5576 5574 5572 5570 5568 5566 5563 5561 5559 5556 5554 5552 5549 5546 5543 5540 5538 5536 5534 5531 5527 5523 5519 5515 5510 5505 5501 5498 5495 5492 5488 5482 5476 5469 5464 5458 5453 5449 5445 5442 5439 5437 5434 5433 5430 5428 5426 5423 5421 5419 5416 5414 5411 5409 5407 5404 5402 5400 5398 5396 5394 5392 5390 5389 5388 5388 5388 5389 5390 5391
5597 5595 5594 5593 5591 5590 5588 5587 5586 5584 5582 5581 5579 5577 5575 5573 5571 5569 5567 5565 5563 5561 5558 5556 5553 5551 5548 5546 5543 5539 5536 5534 5532 5529 5528 5525 5521 5516 5513 5509 5504 5499 5494 5490 5486 5483 5480 5476 5471 5466 5461 5455 5450 5446 5442 5439 5436 5434 5431 5429 5427 5424 5422 5420 5418 5416 5414 5412 5409 5407 5404 5402 5400 5398 5395 5393 5391 5389 5387 5386 5384 5384 5384 5384 5385 5386
5593 5592 5590 5589 5588 5586 5585 5583 5582 5580 5578 5576 5574 5573 5571 5568 5566 5564 5562 5560 5557 5555 5553 5550 5548 5546 5543 5540 5537 5534 5531 5528 5525 5523 5521 5518 5515 5510 5506 5503 5498 5493 5488 5483 5479 5475 5471 5468 5464 5461 5457 5452 5448 5443 5439 5436 5434 5431 5429 5427 5424 5421 5419 5417 5415 5413 5411 5409 5407 5404 5402 5400 5398 5395 5393 5391 5388 5386 5384 5383 5381 5380 5380 5380 5380 5381
5589 5588 5587 5585 5584 5583 5581 5579 5578 5576 5574 5572 5570 5568 5566 5564 5562 5559 5557 5554 5552 5550 5547 5545 5543 5540 5538 5535 5532 5529 5525 5522 5519 5517 5514 5512 5508 5505 5500 5496 5492 5488 5483 5478 5474 5469 5465 5461 5458 5455 5452 5448 5444 5441 5437 5434 5431 5429 5427 5424 5422 5419 5416 5414 5412 5410 5408 5406 5404 5402 5400 5398 5396 5393 5391 5389 5387 5384 5382 5380 5378 5377 5376 5376 5376 5376
5586 5585 5583 5582 5580 5578 5577 5575 5573 5572 5569 5568 5566 5563 5561 5559 5557 5554 5552 5549 5547 5544 5542 5539 5537 5534 5532 5529 5527 5523 5520 5516 5513 5510 5508 5505 5502 5498 5494 5490 5486 5482 5478 5473 5469 5465 5461 5456 5452 5450 5448 5444 5441 5438 5435 5432 5429 5427 5424 5422 5419 5416 5414 5412 5410 5408 5405 5403 5401 5399 5398 5396 5393 5392 5389 5387 5385 5383 5380 5378 5376 5375 5373 5372 5372 5372
5583 5581 5579 5578 5576 5574 5573 5571 5569 5567 5565 5563 5561 5559 5557 5554 5552 5550 5547 5545 5542 5539 5536 5533 5531 5528 5526 5523 5521 5518 5514 5511 5507 5504 5502 5499 5496 5493 5489 5484 5480 5476 5472 5467 5463 5459 5456 5452 5448 5445 5443 5440 5438 5435 5433 5430 5428 5425 5422 5419 5417 5414 5411 5409 5407 5405 5403 5401 5399 5397 5395 5393 5391 5389 5387 5385 5383 5381 5379 5377 5375 5373 5371 5370 5368 5368
5579 5577 5576 5574 5573 5571 5569 5567 5565 5563 5561 5559 5557 5555 5553 5550 5548 5545 5543 5540 5538 5534 5531 5528 5525 5522 5519 5517 5514 5512 5508 5505 5502 5498 5495 5493 5489 5487 5483 5478 5473 5469 5466 5462 5458 5453 5450 5447 5444 5441 5438 5436 5434 5432 5430 5428 5425 5423 5421 5418 5415 5412 5409 5407 5405 5403 5401 5399 5397 5394 5393 5391 5388 5387 5385 5383 5381 5379 5377 5375 5373 5371 5369 5368 5366 5365
5575 5574 5572 5570 5568 5567 5565 5563 5561 5559 5557 5555 5553 5551 5548 5546 5543 5541 5538 5536 5533 5530 5527 5523 5520 5517 5513 5511 5508 5505 5503 5499 5496 5493 5490 5486 5483 5480 5477 5473 5468 5463 5459 5456 5452 5448 5445 5442 5439 5437 5435 5433 5431 5429 5427 5425 5423 5421 5419 5416 5413 5410 5407 5405 5403 5401 5399 5397 5394 5392 5390 5388 5386 5384 5382 5380 5378 5377 5375 5373 5371 5369 5368 5366 5364 5363
5572 5570 5568 5567 5565 5563 5561 5559 5557 5555 5553 5551 5549 5547 5544 5542 5539 5537 5534 5531 5528 5525 5522 5519 5515 5512 5508 5505 5502 5499 5497 5493 5491 5488 5484 5481 5477 5474 5471 5467 5463 5458 5454 5450 5446 5443 5440 5437 5435 5433 5431 5429 5428 5426 5424 5422 5420 5418 5417 5414 5412 5409 5406 5403 5400 5398 5397 5394 5393 5390 5388 5386 5384 5382 5380 5378 5376 5374 5372 5371 5369 5367 5366 5364 5363 5362
5568 5566 5564 5563 5561 5559 5557 5555 5553 5551 5549 5547 5545 5543 5541 5538 5535 5533 5530 5527 5524 5521 5518 5515 5511 5507 5503 5500 5497 5494 5491 5488 5485 5482 5479 5475 5472 5468 5465 5462 5458 5454 5450 5445 5441 5438 5435 5433 5430 5428 5427 5426 5424 5422 5420 5418 5416 5415 5413 5412 5409 5407 5404 5401 5398 5396 5394 5392 5390 5388 5386 5384 5382 5380 5378 5375 5373 5372 5370 5368 5367 5365 5364 5363 5361 5360
5564 5563 5561 5559 5557 5555 5553 5551 5549 5547 5545 5543 5541 5539 5537 5534 5532 5529 5526 5523 5520 5517 5514 5511 5507 5503 5498 5494 5491 5488 5485 5482 5479 5476 5473 5470 5467 5463 5459 5456 5453 5449 5445 5442 5438 5434 5432 5429 5427 5425 5423 5422 5420 5418 5417 5415 5413 5411 5409 5408 5406 5404 5402 5399 5396 5394 5392 5390 5388 5386 5384 5382 5380 5378 5376 5373 5371 5369 5367 5365 5364 5362 5361 5360 5359 5358
5561 5559 5557 5555 5553 5551 5549 5547 5545 5543 5541 5539 5537 5535 5533 5530 5528 5525 5522 5519 5516 5513 5510 5507 5504 5500 5496 5491 5487 5483 5480 5477 5474 5471 5468 5465 5462 5458 5454 5451 5448 5444 5441 5438 5434 5431 5428 5426 5424 5422 5420 5418 5417 5415 5413 5412 5410 5408 5406 5404 5403 5401 5399 5397 5394 5392 5389 5387 5385 5383 5382 5380 5378 5376 5374 5372 5369 5367 5365 5363 5361 5359 5358 5357 5356 5356
5557 5555 5553 5551 5549 5547 5545 5543 5541 5539 5537 5535 5533 5531 5528 5526 5524 5521 5518 5515 5513 5509 5507 5503 5500 5497 5494 5489 5484 5479 5475 5471 5468 5466 5463 5460 5457 5453 5450 5446 5443 5440 5437 5434 5431 5428 5425 5423 5421 5419 5417 5415 5414 5412 5410 5409 5407 5405 5403 5401 5399 5398 5396 5394 5392 5390 5387 5385 5383 5381 5379 5377 5376 5374 5372 5369 5367 5365 5363 5360 5358 5357 5355 5354 5353 5353
5553 5551 5549 5547 5545 5543 5541 5539 5537 5535 5533 5531 5529 5527 5524 5522 5520 5517 5514 5512 5508 5506 5503 5500 5497 5493 5490 5487 5483 5478 5473 5468 5464 5460 5458 5455 5452 5449 5446 5442 5438 5435 5433 5430 5428 5426 5423 5421 5418 5417 5415 5413 5411 5409 5407 5406 5404 5403 5400 5398 5396 5394 5393 5391 5389 5387 5385 5383 5381 5378 5376 5375 5373 5371 5370 5368 5365 5363 5360 5358 5356 5354 5353 5351 5350 5350
5549 5547 5545 5543 5542 5540 5538 5535 5533 5531 5529 5527 5525 5522 5520 5518 5515 5513 5510 5508 5505 5501 5498 5496 5493 5490 5486 5483 5479 5476 5471 5466 5462 5458 5454 5450 5447 5444 5441 5438 5435 5432 5429 5426 5424 5423 5421 5419 5416 5414 5412 5410 5408 5407 5404 5403 5401 5400 5398 5396 5394 5392 5390 5388 5386 5384 5383 5381 5379 5377 5374 5373 5371 5369 5368 5366 5363 5361 5358 5356 5354 5352 5350 5349 5348 5347
5545 5543 5542 5540 5538 5536 5533 5532 5529 5527 5525 5523 5520 5518 5516 5513 5511 5508 5506 5503 5501 5498 5494 5491 5489 5486 5482 5479 5476 5473 5469 5464 5460 5456 5452 5448 5444 5441 5438 5435 5432 5429 5427 5424 5421 5419 5418 5416 5414 5412 5410 5408 5406 5404 5402 5400 5399 5397 5396 5394 5392 5390 5388 5386 5384 5382 5380 5378 5377 5375 5373 5371 5369 5367 5366 5364 5362 5359 5356 5354 5352 5350 5348 5347 5346 5344
5542 5540 5538 5536 5534 5532 5530 5528 5525 5523 5521 5518 5516 5514 5512 5509 5507 5504 5502 5499 5497 5494 5490 5487 5484 5481 5478 5474 5471 5468 5465 5462 5458 5454 5450 5446 5442 5438 5435 5432 5429 5426 5424 5422 5419 5417 5415 5413 5410 5409 5407 5405 5403 5402 5400 5398 5397 5395 5393 5392 5390 5388 5387 5385 5383 5380 5378 5377 5375 5373 5371 5369 5368 5366 5364 5362 5360 5358 5355 5352 5349 5347 5346 5344 5343 5342
5538 5536 5534 5532 5530 5528 5526 5523 5522 5519 5517 5514 5512 5510 5507 5505 5503 5500 5498 5495 5492 5489 5487 5483 5480 5477 5473 5470 5467 5463 5461 5458 5454 5451 5448 5444 5440 5437 5433 5430 5427 5424 5422 5420 5418 5415 5413 5411 5408 5406 5404 5402 5401 5399 5398 5396 5395 5393 5391 5389 5388 5386 5384 5383 5381 5378 5377 5374 5373 5371 5369 5367 5366 5364 5363 5361 5359 5357 5354 5351 5348 5345 5343 5342 5341 5340
5534 5532 5530 5528 5526 5524 5522 5520 5518 5515 5513 5511 5508 5506 5503 5501 5499 5497 5494 5491 5488 5485 5483 5479 5476 5473 5469 5466 5462 5459 5456 5453 5450 5447 5443 5441 5438 5434 5431 5428 5425 5423 5420 5418 5416 5414 5412 5409 5407 5403 5401 5399 5398 5396 5395 5394 5393 5391 5389 5387 5386 5384 5383 5381 5379 5377 5375 5373 5371 5369 5367 5365 5363 5362 5360 5358 5357 5355 5353 5350 5347 5344 5341 5340 5339 5338
5530 5528 5527 5524 5523 5520 5518 5516 5514 5512 5509 5507 5505 5502 5499 5497 5494 5492 5489 5487 5484 5481 5478 5475 5473 5469 5465 5462 5458 5455 5452 5448 5445 5442 5439 5436 5434 5431 5428 5425 5423 5421 5419 5417 5415 5413 5412 5409 5406 5403 5399 5397 5395 5393 5392 5391 5390 5389 5387 5385 5383 5382 5380 5378 5377 5375 5373 5371 5369 5367 5365 5363 5361 5359 5358 5356 5354 5353 5351 5348 5345 5342 5339 5338 5336 5335
5527 5525 5523 5521 5519 5517 5514 5512 5510 5508 5506 5503 5501 5498 5496 5493 5490 5488 5485 5483 5480 5477 5474 5471 5468 5465 5462 5458 5455 5451 5448 5444 5442 5438 5435 5432 5430 5428 5425 5422 5420 5419 5417 5415 5413 5412 5411 5409 5406 5403 5399 5395 5392 5390 5389 5388 5388 5387 5385 5383 5381 5379 5378 5376 5374 5373 5371 5368 5367 5365 5363 5361 5359 5357 5356 5354 5352 5350 5349 5347 5344 5341 5338 5336 5334 5333